BAW918 EGLL-EHAM

Flight info

Callsign BAW918
Flight time 0h 39m
Altitude 27000
Route BPK Q295 BRAIN M197 REDFA
Aircraft A320/M-SDE3FGHIRWY/LB1

Departure

Time 2026-05-06 15:19
Airport London Heathrow Airport (EGLL)

Arrival

Time 2026-05-06 15:59
Airport Amsterdam Airport Schiphol (EHAM)
Time Latitude Longitude Altitude Speed Heading
2026-05-06 15:01 51.46928 -0.48718 87 ft 2 kts 360°
2026-05-06 15:11 51.46914 -0.48717 89 ft 7 kts 354°
2026-05-06 15:11 51.46890 -0.48708 87 ft 7 kts 327°
2026-05-06 15:11 51.46877 -0.48682 88 ft 6 kts 270°
2026-05-06 15:12 51.46876 -0.48680 87 ft 0 kts 270°
2026-05-06 15:13 51.46876 -0.48679 87 ft 0 kts 270°
2026-05-06 15:15 51.46876 -0.48680 87 ft 1 kts 270°
2026-05-06 15:15 51.46876 -0.48718 87 ft 5 kts 268°
2026-05-06 15:15 51.46846 -0.48752 89 ft 8 kts 175°
2026-05-06 15:16 51.46795 -0.48750 87 ft 0 kts 180°
2026-05-06 15:16 51.46762 -0.48750 87 ft 9 kts 180°
2026-05-06 15:17 51.46692 -0.48750 87 ft 11 kts 180°
2026-05-06 15:17 51.46609 -0.48763 91 ft 13 kts 194°
2026-05-06 15:17 51.46516 -0.48781 91 ft 14 kts 161°
2026-05-06 15:17 51.46477 -0.48643 88 ft 14 kts 90°
2026-05-06 15:18 51.46477 -0.48614 88 ft 0 kts 89°
2026-05-06 15:18 51.46477 -0.48613 88 ft 1 kts 89°
2026-05-06 15:18 51.46477 -0.48560 88 ft 17 kts 89°
2026-05-06 15:18 51.46483 -0.47997 87 ft 85 kts 90°
2026-05-06 15:19 51.46486 -0.46741 91 ft 138 kts 89°
2026-05-06 15:19 51.46500 -0.45016 229 ft 166 kts 90°
2026-05-06 15:19 51.46495 -0.43127 845 ft 169 kts 91°
2026-05-06 15:19 51.46571 -0.41273 1533 ft 162 kts 67°
2026-05-06 15:20 51.47214 -0.39863 2022 ft 165 kts 44°
2026-05-06 15:20 51.48044 -0.38401 2274 ft 188 kts 46°
2026-05-06 15:20 51.48943 -0.36750 2572 ft 208 kts 46°
2026-05-06 15:20 51.49957 -0.34855 2934 ft 234 kts 47°
2026-05-06 15:21 51.51046 -0.32791 3579 ft 249 kts 48°
2026-05-06 15:21 51.52111 -0.30594 4481 ft 256 kts 59°
2026-05-06 15:21 51.52784 -0.27868 5384 ft 263 kts 69°
2026-05-06 15:21 51.53377 -0.25072 6281 ft 266 kts 69°
2026-05-06 15:22 51.54234 -0.22474 7072 ft 269 kts 50°
2026-05-06 15:22 51.55638 -0.20433 7872 ft 271 kts 29°
2026-05-06 15:22 51.57369 -0.19311 8689 ft 274 kts 17°
2026-05-06 15:22 51.59170 -0.18231 9602 ft 278 kts 17°
2026-05-06 15:23 51.61024 -0.17274 10292 ft 286 kts 15°
2026-05-06 15:23 51.63007 -0.16283 10512 ft 310 kts 15°
2026-05-06 15:23 51.65133 -0.15251 10835 ft 326 kts 14°
2026-05-06 15:23 51.67336 -0.14204 11454 ft 332 kts 14°
2026-05-06 15:24 51.69571 -0.13152 12101 ft 337 kts 15°
2026-05-06 15:24 51.71727 -0.11585 12766 ft 345 kts 30°
2026-05-06 15:24 51.73582 -0.09071 13439 ft 353 kts 46°
2026-05-06 15:24 51.74962 -0.05751 14059 ft 362 kts 63°
2026-05-06 15:25 51.75718 -0.01864 14645 ft 368 kts 79°
2026-05-06 15:25 51.76064 0.02256 15209 ft 371 kts 81°
2026-05-06 15:25 51.76402 0.06402 15806 ft 375 kts 82°
2026-05-06 15:25 51.76745 0.10593 16397 ft 378 kts 82°
2026-05-06 15:26 51.77093 0.14822 16995 ft 382 kts 82°
2026-05-06 15:26 51.77442 0.19091 17599 ft 385 kts 82°
2026-05-06 15:26 51.77792 0.23407 18207 ft 389 kts 82°
2026-05-06 15:26 51.78145 0.27751 18753 ft 392 kts 82°
2026-05-06 15:27 51.78500 0.32142 19302 ft 396 kts 82°
2026-05-06 15:27 51.78859 0.36559 19857 ft 399 kts 82°
2026-05-06 15:27 51.79220 0.41031 20415 ft 402 kts 82°
2026-05-06 15:27 51.79576 0.45469 20962 ft 405 kts 82°
2026-05-06 15:28 51.79939 0.50061 21503 ft 409 kts 83°
2026-05-06 15:28 51.80290 0.54568 22019 ft 412 kts 83°
2026-05-06 15:28 51.80651 0.59244 22549 ft 415 kts 83°
2026-05-06 15:28 51.81006 0.63821 23046 ft 418 kts 82°
2026-05-06 15:29 51.81603 0.68422 23552 ft 420 kts 75°
2026-05-06 15:29 51.82318 0.73020 23989 ft 423 kts 76°
2026-05-06 15:29 51.83035 0.77645 24416 ft 425 kts 76°
2026-05-06 15:29 51.83753 0.82288 24829 ft 427 kts 75°
2026-05-06 15:30 51.84529 0.86935 25226 ft 429 kts 74°
2026-05-06 15:30 51.85369 0.91576 25641 ft 431 kts 73°
2026-05-06 15:30 51.86249 0.96242 26035 ft 434 kts 72°
2026-05-06 15:30 51.87138 1.00920 26432 ft 436 kts 72°
2026-05-06 15:31 51.88023 1.05626 26804 ft 438 kts 73°
2026-05-06 15:31 51.88894 1.10359 26947 ft 437 kts 73°
2026-05-06 15:31 51.89741 1.15040 26975 ft 431 kts 73°
2026-05-06 15:32 51.91388 1.24276 26971 ft 429 kts 73°
2026-05-06 15:32 51.92213 1.28915 26971 ft 429 kts 74°
2026-05-06 15:32 51.93038 1.33555 26972 ft 429 kts 74°
2026-05-06 15:32 51.93863 1.38200 26972 ft 429 kts 74°
2026-05-06 15:33 51.94687 1.42845 26971 ft 429 kts 74°
2026-05-06 15:33 51.95511 1.47498 26973 ft 429 kts 74°
2026-05-06 15:33 51.96334 1.52142 26975 ft 429 kts 74°
2026-05-06 15:33 51.97157 1.56794 26972 ft 429 kts 74°
2026-05-06 15:34 51.97975 1.61444 26976 ft 429 kts 74°
2026-05-06 15:34 51.98790 1.66105 26971 ft 429 kts 74°
2026-05-06 15:34 51.99594 1.70764 26968 ft 429 kts 75°
2026-05-06 15:34 52.00357 1.75453 26968 ft 429 kts 76°
2026-05-06 15:35 52.01084 1.80151 26969 ft 429 kts 76°
2026-05-06 15:35 52.01789 1.84856 26969 ft 429 kts 77°
2026-05-06 15:35 52.02491 1.89571 26965 ft 430 kts 77°
2026-05-06 15:35 52.03199 1.94283 26968 ft 430 kts 76°
2026-05-06 15:36 52.03914 1.99001 26960 ft 430 kts 76°
2026-05-06 15:36 52.04635 2.03707 26961 ft 430 kts 76°
2026-05-06 15:36 52.05362 2.08420 26964 ft 430 kts 76°
2026-05-06 15:36 52.06091 2.13153 26963 ft 435 kts 76°
2026-05-06 15:37 52.06816 2.17889 26966 ft 439 kts 77°
2026-05-06 15:37 52.07551 2.22720 26964 ft 440 kts 77°
2026-05-06 15:37 52.08284 2.27565 26966 ft 441 kts 77°
2026-05-06 15:37 52.09013 2.32397 26963 ft 441 kts 77°
2026-05-06 15:38 52.09741 2.37242 26961 ft 441 kts 77°
2026-05-06 15:38 52.10466 2.42086 26964 ft 441 kts 77°
2026-05-06 15:38 52.11235 2.46925 26960 ft 441 kts 72°
2026-05-06 15:38 52.12449 2.51512 26958 ft 442 kts 60°
2026-05-06 15:39 52.14009 2.55822 26957 ft 442 kts 59°
2026-05-06 15:39 52.15578 2.60122 26958 ft 442 kts 59°
2026-05-06 15:39 52.17144 2.64432 26953 ft 442 kts 59°
2026-05-06 15:39 52.18704 2.68738 26953 ft 442 kts 59°
2026-05-06 15:40 52.20266 2.73057 26953 ft 442 kts 59°
2026-05-06 15:40 52.21822 2.77374 26947 ft 442 kts 59°
2026-05-06 15:40 52.23378 2.81701 26947 ft 442 kts 60°
2026-05-06 15:40 52.24930 2.86030 26948 ft 442 kts 60°
2026-05-06 15:41 52.26482 2.90369 26943 ft 442 kts 60°
2026-05-06 15:41 52.28029 2.94707 26937 ft 442 kts 60°
2026-05-06 15:41 52.29576 2.99047 26937 ft 442 kts 60°
2026-05-06 15:41 52.31126 3.03394 26939 ft 442 kts 60°
2026-05-06 15:42 52.32657 3.07692 26907 ft 430 kts 60°
2026-05-06 15:42 52.34142 3.11871 26635 ft 421 kts 60°
2026-05-06 15:42 52.35605 3.15996 25978 ft 421 kts 60°
2026-05-06 15:42 52.37105 3.20238 24585 ft 442 kts 60°
2026-05-06 15:43 52.38664 3.24648 23694 ft 468 kts 59°
2026-05-06 15:43 52.40332 3.29372 23230 ft 489 kts 59°
2026-05-06 15:43 52.42047 3.34253 22972 ft 498 kts 60°
2026-05-06 15:43 52.43770 3.39176 22706 ft 497 kts 60°
2026-05-06 15:44 52.45124 3.44302 21979 ft 485 kts 74°
2026-05-06 15:44 52.45949 3.49619 21053 ft 478 kts 76°
2026-05-06 15:44 52.46712 3.54889 20154 ft 472 kts 77°
2026-05-06 15:44 52.47434 3.60060 19403 ft 454 kts 77°
2026-05-06 15:45 52.48121 3.65051 17932 ft 446 kts 77°
2026-05-06 15:45 52.48801 3.69988 16422 ft 440 kts 77°
2026-05-06 15:45 52.49474 3.74824 15109 ft 431 kts 76°
2026-05-06 15:45 52.50141 3.79568 13916 ft 422 kts 76°
2026-05-06 15:46 52.50797 3.84213 12680 ft 412 kts 76°
2026-05-06 15:46 52.51435 3.88738 11493 ft 402 kts 76°
2026-05-06 15:46 52.52038 3.93156 10332 ft 392 kts 79°
2026-05-06 15:46 52.52081 3.97541 9446 ft 377 kts 98°
2026-05-06 15:47 52.51360 4.01498 9122 ft 348 kts 111°
2026-05-06 15:47 52.50505 4.05027 8962 ft 319 kts 110°
2026-05-06 15:47 52.49718 4.08277 8817 ft 295 kts 110°
2026-05-06 15:47 52.48980 4.11326 8415 ft 283 kts 110°
2026-05-06 15:48 52.48263 4.14298 7879 ft 278 kts 110°
2026-05-06 15:48 52.47555 4.17219 7321 ft 273 kts 110°
2026-05-06 15:48 52.46853 4.20094 6875 ft 271 kts 109°
2026-05-06 15:48 52.46152 4.22949 6602 ft 268 kts 109°
2026-05-06 15:49 52.45456 4.25775 6309 ft 266 kts 109°
2026-05-06 15:49 52.44777 4.28522 6000 ft 264 kts 109°
2026-05-06 15:49 52.44091 4.31303 5675 ft 263 kts 109°
2026-05-06 15:49 52.43374 4.34041 5363 ft 262 kts 116°
2026-05-06 15:50 52.42240 4.36328 5055 ft 265 kts 137°
2026-05-06 15:50 52.40651 4.37845 4813 ft 265 kts 158°
2026-05-06 15:50 52.38846 4.38356 4580 ft 266 kts 179°
2026-05-06 15:50 52.36998 4.38134 4267 ft 265 kts 181°
2026-05-06 15:51 52.35163 4.37890 3949 ft 264 kts 182°
2026-05-06 15:51 52.33368 4.37656 3632 ft 253 kts 181°
2026-05-06 15:51 52.31650 4.37434 3322 ft 243 kts 181°
2026-05-06 15:51 52.29970 4.37221 3050 ft 240 kts 181°
2026-05-06 15:52 52.28306 4.37015 2991 ft 236 kts 181°
2026-05-06 15:52 52.26690 4.36812 2997 ft 232 kts 180°
2026-05-06 15:52 52.25118 4.37034 3005 ft 225 kts 159°
2026-05-06 15:52 52.23769 4.38130 3001 ft 211 kts 137°
2026-05-06 15:53 52.22792 4.39836 3002 ft 203 kts 117°
2026-05-06 15:53 52.22168 4.41861 2839 ft 198 kts 110°
2026-05-06 15:53 52.21596 4.43852 2706 ft 190 kts 110°
2026-05-06 15:53 52.21081 4.45792 2530 ft 183 kts 101°
2026-05-06 15:54 52.20875 4.47794 2287 ft 178 kts 87°
2026-05-06 15:54 52.20850 4.49811 2109 ft 178 kts 87°
2026-05-06 15:54 52.20853 4.51828 2008 ft 174 kts 78°
2026-05-06 15:54 52.21175 4.53628 2041 ft 162 kts 61°
2026-05-06 15:55 52.21753 4.55199 2020 ft 160 kts 56°
2026-05-06 15:55 52.22147 4.56212 2011 ft 160 kts 56°
2026-05-06 15:55 52.22741 4.57741 1999 ft 160 kts 55°
2026-05-06 15:55 52.23332 4.59266 1968 ft 158 kts 55°
2026-05-06 15:56 52.24100 4.61252 1797 ft 155 kts 56°
2026-05-06 15:56 52.24479 4.62234 1687 ft 146 kts 56°
2026-05-06 15:56 52.25164 4.64008 1442 ft 135 kts 56°
2026-05-06 15:56 52.25499 4.64874 1319 ft 133 kts 56°
2026-05-06 15:57 52.25991 4.66147 1135 ft 132 kts 55°
2026-05-06 15:57 52.26476 4.67392 949 ft 131 kts 54°
2026-05-06 15:57 52.26980 4.68653 785 ft 132 kts 56°
2026-05-06 15:57 52.27462 4.69917 627 ft 133 kts 58°
2026-05-06 15:58 52.27944 4.71217 454 ft 133 kts 56°
2026-05-06 15:58 52.28436 4.72484 262 ft 133 kts 57°
2026-05-06 15:58 52.28925 4.73760 38 ft 132 kts 58°
2026-05-06 15:58 52.29362 4.74912 -1 ft 104 kts 56°
2026-05-06 15:59 52.29594 4.75499 -2 ft 18 kts 57°
2026-05-06 15:59 52.29636 4.75603 -1 ft 13 kts 56°
2026-05-06 15:59 52.29706 4.75755 -2 ft 19 kts 38°
2026-05-06 15:59 52.29829 4.75844 -2 ft 20 kts 27°
2026-05-06 16:00 52.29961 4.75954 -1 ft 22 kts 28°
2026-05-06 16:00 52.30055 4.76153 -1 ft 23 kts 58°
2026-05-06 16:00 52.30144 4.76384 -1 ft 25 kts 58°
2026-05-06 16:00 52.30237 4.76623 -1 ft 23 kts 57°
2026-05-06 16:01 52.30322 4.76847 -1 ft 24 kts 58°
2026-05-06 16:01 52.30414 4.77081 -1 ft 24 kts 58°
2026-05-06 16:01 52.30487 4.77150 -1 ft 12 kts 331°
2026-05-06 16:01 52.30563 4.77073 -1 ft 13 kts 328°
2026-05-06 16:02 52.30640 4.77017 -1 ft 11 kts
2026-05-06 16:02 52.30682 4.77023 -1 ft 6 kts
2026-05-06 16:02 52.30708 4.77025 -1 ft 3 kts
2026-05-06 16:02 52.30715 4.77026 -1 ft 1 kts